Weather History for Dublin, VA

Change the Weather History Date:

Sunday, December 9, 2012

  Actual Average (KBCB) Record (KBCB)
Temperature  
Mean Temperature 54 °F 35 °F  
Max Temperature 68 °F 45 °F 70 °F (1980)
Min Temperature 39 °F 25 °F 1 °F (1995)
Degree Days  
Heating Degree Days 12 30  
Month to date heating degree days 258  
Since 1 July heating degree days 1438  
Cooling Degree Days 0 0  
Month to date cooling degree days 0  
Year to date cooling degree days 573  
Growing Degree Days 4 (Base 50)    
Moisture  
Dew Point 50 °F    
Average Humidity 89    
Maximum Humidity 100    
Minimum Humidity 56    
Precipitation  
Precipitation 0.00 in 0.10 in 1.50 in (1973)
Month to date precipitation 0.92  
Year to date precipitation 38.86  
Snow  
Snow 0.00 in - - ()
Month to date snowfall  
Since 1 July snowfall  
Snow Depth -    
Sea Level Pressure  
Sea Level Pressure 30.06 in    
Wind  
Wind Speed 2 mph (South)    
Max Wind Speed 17 mph    
Max Gust Speed 23 mph    
Visibility 8 miles    
Events      
T = Trace of Precipitation, MM = Missing Value Source: NWS Daily Summary

Daily Weather History Graph

Daily Weather History Graph

Search for Another Location

Airport:

Trip Planner

Search our weather history database for the weather conditions in past years. The results will help you decide how hot, cold, wet, or windy it might be!

Date:

Astronomy

Dec. 09, 2012 Rise Set
Actual Time 7:25 AM EST 5:05 PM EST
Civil Twilight 6:56 AM EST 5:34 PM EST
Nautical Twilight 6:23 AM EST 6:06 PM EST
Astronomical Twilight 5:52 AM EST 6:38 PM EST
Moon 3:00 AM EST (12/9) 2:07 PM EST (12/9)
Length of Visible Light 10h 38m
Length of Day
9h 40m
Waning Crescent, 19% of the Moon is Illuminated
Dec 9
Waning Crescent
Dec 13
New
Dec 20
First Quarter
Dec 28
Full
Jan 4
Last Quarter

Hourly Weather History & Observations

Time (EST) Temp. Windchill Dew Point Humidity Pressure Visibility Wind Dir Wind Speed Gust Speed Precip Events Conditions
12:15 AM 46.4 °F - 46.4 °F 100% 30.06 in 7.0 mi Calm Calm - N/A   Clear
12:35 AM 46.4 °F - 46.4 °F 100% 30.06 in 5.0 mi Calm Calm - N/A   Clear
12:55 AM 44.6 °F - 44.6 °F 100% 30.05 in - Calm Calm - N/A   Unknown
1:35 AM 44.6 °F - 44.6 °F 100% 30.07 in - Calm Calm - N/A   Unknown
1:55 AM 41.0 °F - 41.0 °F 100% 30.07 in - Calm Calm - N/A   Unknown
2:15 AM 42.8 °F - 42.8 °F 100% 30.08 in - Calm Calm - N/A   Unknown
2:35 AM - - - N/A% - - North - - N/A   Unknown
3:15 AM 42.8 °F - 42.8 °F 100% 30.07 in - Calm Calm - N/A   Mostly Cloudy
3:35 AM 42.8 °F - 42.8 °F 100% 30.07 in - Calm Calm - N/A   Overcast
3:55 AM 44.6 °F - 44.6 °F 100% 30.07 in - Calm Calm - N/A   Unknown
4:15 AM 39.2 °F - 39.2 °F 100% 30.07 in - Calm Calm - N/A   Unknown
4:35 AM - - - N/A% - - North - - N/A   Unknown
4:55 AM - - - N/A% - - North - - N/A   Unknown
5:55 AM 42.8 °F - 42.8 °F 100% 30.09 in 1.8 mi Calm Calm - N/A   Mostly Cloudy
6:15 AM 42.8 °F 41.1 °F 42.8 °F 100% 30.10 in - NW 3.5 mph - N/A   Unknown
6:35 AM 42.8 °F - 42.8 °F 100% 30.10 in - Calm Calm - N/A   Unknown
6:55 AM 42.8 °F - 42.8 °F 100% 30.11 in 1.8 mi Calm Calm - N/A   Overcast
7:15 AM 44.6 °F - 44.6 °F 100% 30.12 in 2.5 mi Calm Calm - N/A   Scattered Clouds
7:35 AM 42.8 °F - 42.8 °F 100% 30.13 in 2.0 mi Calm Calm - N/A   Mostly Cloudy
7:55 AM 42.8 °F - 42.8 °F 100% 30.13 in 1.5 mi Calm Calm - N/A   Overcast
8:15 AM 44.6 °F - 44.6 °F 100% 30.13 in 2.5 mi Calm Calm - N/A   Mostly Cloudy
8:35 AM 44.6 °F - 44.6 °F 100% 30.13 in 3.0 mi Calm Calm - N/A   Mostly Cloudy
8:55 AM 46.4 °F - 46.4 °F 100% 30.14 in 3.0 mi Calm Calm - N/A   Mostly Cloudy
9:15 AM 48.2 °F - 48.2 °F 100% 30.14 in 2.5 mi Calm Calm - N/A   Scattered Clouds
9:35 AM 48.2 °F - 48.2 °F 100% 30.14 in 3.0 mi Calm Calm - N/A   Scattered Clouds
9:55 AM 51.8 °F - 51.8 °F 100% 30.14 in 7.0 mi Calm Calm - N/A   Scattered Clouds
10:15 AM 51.8 °F - 51.8 °F 100% 30.14 in 10.0 mi Calm Calm - N/A   Scattered Clouds
10:35 AM 53.6 °F - 53.6 °F 100% 30.13 in 10.0 mi Calm Calm - N/A   Scattered Clouds
10:55 AM 53.6 °F - 51.8 °F 94% 30.13 in 10.0 mi Calm Calm - N/A   Mostly Cloudy
11:15 AM 57.2 °F - 53.6 °F 88% 30.12 in 10.0 mi Calm Calm - N/A   Mostly Cloudy
11:35 AM 60.8 °F - 53.6 °F 77% 30.10 in 10.0 mi NNE 3.5 mph - N/A   Scattered Clouds
11:55 AM 60.8 °F - 51.8 °F 72% 30.08 in 10.0 mi Calm Calm - N/A   Clear
12:15 PM 62.6 °F - 53.6 °F 72% 30.07 in 10.0 mi ENE 3.5 mph - N/A   Clear
12:35 PM 62.6 °F - 53.6 °F 72% 30.06 in 10.0 mi East 3.5 mph - N/A   Scattered Clouds
12:55 PM 62.6 °F - 51.8 °F 68% 30.06 in 10.0 mi East 5.8 mph - N/A   Overcast
1:15 PM 62.6 °F - 51.8 °F 68% 30.05 in 10.0 mi ESE 3.5 mph - N/A   Mostly Cloudy
1:35 PM 64.4 °F - 53.6 °F 68% 30.04 in 10.0 mi East 5.8 mph - N/A   Mostly Cloudy
1:55 PM 66.2 °F - 53.6 °F 64% 30.02 in 10.0 mi ESE 3.5 mph - N/A   Scattered Clouds
2:15 PM 66.2 °F - 53.6 °F 64% 30.01 in 10.0 mi SSE 4.6 mph - N/A   Mostly Cloudy
2:35 PM 68.0 °F - 53.6 °F 60% 30.01 in 10.0 mi South 9.2 mph - N/A   Scattered Clouds
2:55 PM 68.0 °F - 51.8 °F 56% 30.01 in 10.0 mi South 17.3 mph 23.0 mph N/A   Clear
3:15 PM 66.2 °F - 51.8 °F 60% 30.02 in 10.0 mi South 13.8 mph 18.4 mph N/A   Clear
3:35 PM 64.4 °F - 53.6 °F 68% 30.02 in 10.0 mi South 9.2 mph 17.3 mph N/A   Clear
3:55 PM 64.4 °F - 53.6 °F 68% 30.01 in 10.0 mi South 11.5 mph - N/A   Clear
4:15 PM 62.6 °F - 53.6 °F 72% 30.02 in 10.0 mi South 10.4 mph - N/A   Clear
4:35 PM 62.6 °F - 53.6 °F 72% 30.03 in 10.0 mi South 8.1 mph - N/A   Clear
4:55 PM 60.8 °F - 53.6 °F 77% 30.03 in 10.0 mi South 8.1 mph - N/A   Clear
5:15 PM 60.8 °F - 53.6 °F 77% 30.03 in 10.0 mi South 8.1 mph - N/A   Clear
5:35 PM 59.0 °F - 53.6 °F 82% 30.04 in 10.0 mi South 10.4 mph - N/A   Clear
5:55 PM 57.2 °F - 53.6 °F 88% 30.04 in 10.0 mi South 9.2 mph - N/A   Clear
6:15 PM 57.2 °F - 53.6 °F 88% 30.05 in 10.0 mi South 10.4 mph - N/A   Scattered Clouds
6:35 PM 57.2 °F - 53.6 °F 88% 30.04 in 10.0 mi South 6.9 mph - N/A   Scattered Clouds
6:55 PM 57.2 °F - 53.6 °F 88% 30.04 in 10.0 mi SSW 8.1 mph - N/A   Scattered Clouds
7:15 PM 57.2 °F - 53.6 °F 88% 30.04 in 10.0 mi SSW 8.1 mph - N/A   Scattered Clouds
7:35 PM 57.2 °F - 55.4 °F 94% 30.04 in 10.0 mi SSW 9.2 mph - N/A   Clear
7:55 PM 55.4 °F - 53.6 °F 94% 30.03 in 10.0 mi SSW 5.8 mph - N/A   Clear
8:15 PM 55.4 °F - 53.6 °F 94% 30.03 in 10.0 mi SW 4.6 mph - N/A   Clear
8:35 PM 55.4 °F - 53.6 °F 94% 30.02 in 10.0 mi SSW 4.6 mph - N/A   Scattered Clouds
8:55 PM 55.4 °F - 53.6 °F 94% 30.02 in 10.0 mi SSW 3.5 mph - N/A   Scattered Clouds
9:15 PM 55.4 °F - 55.4 °F 100% 30.02 in 10.0 mi South 4.6 mph - N/A   Mostly Cloudy
9:35 PM 57.2 °F - 55.4 °F 94% 30.01 in 10.0 mi South 6.9 mph - N/A   Mostly Cloudy
9:55 PM 57.2 °F - 55.4 °F 94% 30.01 in 10.0 mi South 5.8 mph - N/A   Scattered Clouds
10:15 PM 55.4 °F - 53.6 °F 94% 30.00 in 10.0 mi South 3.5 mph - N/A   Clear
10:35 PM 55.4 °F - 53.6 °F 94% 29.99 in 10.0 mi South 3.5 mph - N/A   Clear
10:55 PM 55.4 °F - 53.6 °F 94% 29.99 in 10.0 mi South 3.5 mph - N/A   Clear
11:15 PM 55.4 °F - 53.6 °F 94% 29.98 in 10.0 mi South 4.6 mph - N/A   Clear
11:35 PM 55.4 °F - 53.6 °F 94% 29.98 in 10.0 mi SSW 3.5 mph - N/A   Scattered Clouds
11:55 PM 55.4 °F - 53.6 °F 94% 29.97 in 10.0 mi South 3.5 mph - N/A   Scattered Clouds